Starlink 31341

operational
NORAD ID: 59155 Int'l Des: 2024-044 Owner: SPXS Country: US Constellation: starlink
LEOCIRCULAR

About Starlink 31341

Description loading...

Live Position

Loading 3D Globe...

Upcoming Passes

Altitude History

Altitude vs Time

uPlot chart will show altitude changes over time

Two-Line Element Set

1 59155U 24044D 25303.23754685 -.00000574 00000-0 -12097-4 0 9993
2 59155 43.0017 127.2828 0001083 265.3982 94.6746 15.25911390 93575
Epoch: Oct 30, 2025 • Age: 22 hours

Current Status

Altitude 489.7 km
Velocity 7.62 km/s
Sub-Earth Point 32.77°N, 66.86°E
Launch Date Mar 4, 2024
Age 1.6 years
Type internet

Technical Details

Classification Payload
Mass 730.00 kg
Dry Mass 700.00 kg
Total Mass 730.00 kg
Length 0.30 m
Diameter 4.10 m
Span 29.00 m
Shape Box + pan
Manufacturer SPXS
Bus Type Starlink V2M
Phase Status In Orbit
Owner/State SPXS/US

Large Constellations

Loading constellations...